This is the latest recevied weather packets stored in our database for station/object N7SWJ. If no packets are shown the sender has not sent any weather packets the latest 10 day(s).
| Time | Temp. | Humidity | Pressure | Rain* | Wind** | Luminosity | Snow |
|---|---|---|---|---|---|---|---|
| 1778080398 | 1.11° C | 96% | 1022.2 hPa | 0 mm | - | 134 W/m² | - |
| 1778080095 | 0.56° C | 96% | 1022.2 hPa | 1.78 mm | - | 122 W/m² | - |
| 1778079792 | 0.56° C | 96% | 1022.1 hPa | 1.78 mm | - | 118 W/m² | - |
| 1778079489 | 0.56° C | 96% | 1022.1 hPa | 0 mm | - | 106 W/m² | - |
| 1778079186 | 0.56° C | 96% | 1022.1 hPa | 1.27 mm | - | 100 W/m² | - |
| 1778078883 | 0.56° C | 96% | 1021.9 hPa | 1.27 mm | - | 87 W/m² | - |
| 1778078580 | 0.56° C | 97% | 1022.1 hPa | 0 mm | - | 81 W/m² | - |
| 1778078278 | 0.56° C | 97% | 1021.9 hPa | 0 mm | - | 77 W/m² | - |
| 1778077975 | 0° C | 97% | 1021.9 hPa | 1.78 mm | - | 70 W/m² | - |
| 1778077673 | 0° C | 97% | 1022 hPa | 1.78 mm | - | 62 W/m² | - |
| 1778077371 | 0° C | 97% | 1021.9 hPa | 0 mm | - | 50 W/m² | - |
| 1778077069 | 0° C | 97% | 1021.9 hPa | 0 mm | - | 57 W/m² | - |
| 1778076767 | 0° C | 97% | 1021.6 hPa | 0 mm | - | 63 W/m² | - |
| 1778076464 | 0.56° C | 97% | 1021.6 hPa | 1.27 mm | - | 63 W/m² | - |
| 1778076161 | 0.56° C | 97% | 1021.6 hPa | 1.27 mm | - | 59 W/m² | - |
| 1778075858 | 0° C | 97% | 1021.6 hPa | 0 mm | - | 52 W/m² | - |
| 1778075554 | 0° C | 97% | 1021.4 hPa | 0 mm | - | 49 W/m² | - |
| 1778075251 | 0° C | 97% | 1021.5 hPa | 0 mm | - | 48 W/m² | - |
| 1778074948 | 0° C | 97% | 1021.4 hPa | 0 mm | - | 42 W/m² | - |
| 1778074645 | 0° C | 97% | 1021.4 hPa | 0 mm | - | 49 W/m² | - |
| 1778074341 | 0° C | 97% | 1021.3 hPa | 0 mm | - | 43 W/m² | - |
| 1778074038 | 0° C | 97% | 1020.9 hPa | 0 mm | - | 30 W/m² | - |
| 1778073735 | 0° C | 97% | 1020.8 hPa | 1.78 mm | - | 30 W/m² | - |
| 1778073433 | 0° C | 97% | 1021.1 hPa | 1.78 mm | - | 34 W/m² | - |
| 1778073129 | 0° C | 97% | 1021.2 hPa | 0 mm | - | 28 W/m² | - |
* Rain latest hour (hover to see other rain measurements)
** Current wind speed in m/s (hover to see current wind gust speed)